www.pogodaiklimat.ru

Погода и климат >> Архив погоды >> Россия >> Карачаево-Черкессия >> Зеленчукская


ПОГОДА в Зеленчукской

  • Прогноз погоды в Зеленчукской
  • Монитор погоды в Зеленчукской

АРХИВ ПОГОДЫ в Зеленчукской

Время (UTC), дата Ветер
(напр.,м/с)
 
Видим.   Явления Облачность Т
(С)
Тd
(С)
f
(%)
Тe
(С)
Тes
(С)
Комфортность P
(гПа)
Po
(гПа)
Тmin
(С)
Tmax
(С)
R
(мм)
R24
(мм)
S
(см)
21 15.09 З 1 50 км ясно +8.7 +7.4 92 +8 +8 1023.1 915.1
00 16.09 штиль 0 50 км ясно +6.2 +6.2 100 +5 +5 1023.7 914.7
03 16.09 Ю 1 50 км ясно +4.5 +4.5 100 +3 +3 1023.6 913.9 +4.3
06 16.09 штиль 0 50 км ясно +15.6 +7.9 60 +16 +23 1017.6 912.6
09 16.09 СЗ 1 50 км 1/0
[Ac trans]
+24.2 +4.2 27 +24 +37 комфорт 1012.6 910.8
12 16.09 С 2 50 км 4/0
[Ac trans Ci fib]
+25.7 +4.3 25 +25 +31 комфорт 1010.2 909.2
15 16.09 З 1 50 км 3/0
[Ac trans Ci fib]
+20.8 +7.1 41 +23 +23 комфорт 1012.2 909.4 +26.4
18 16.09 Ю 2 50 км 5/0
[Ac trans Ci fib]
+12.5 +8.0 74 +12 +12 1016.1 910.2
21 16.09 штиль 0 50 км 10/0
[Ac trans Ci fib]
+10.6 +8.6 87 +10 +10 1016.7 910.1
00 17.09 Ю 1 50 км 10/0
[Ac trans]
+10.4 +9.7 95 +10 +10 1015.9 909.3
03 17.09 В 1 20 км 10/10 600 м
[Cb calv]
+11.1 +10.5 96 +11 +11 1015.4 909.2 +9.3
06 17.09 штиль 0 20 км в посл. час ливневой дождь 10/10 600 м
[Cb calv]
+11.9 +11.9 100 +11 +11 1015.4 909.5
09 17.09 В 1 20 км в посл. час ливневой дождь 9/8 600 м
[Cb calv Ac trans]
+14.8 +14.6 99 +15 +17 1012.8 908.2
12 17.09 СВ 1 50 км {ливн. осадки} 10/6 600 м
[Cb calv Ac trans Ci fib]
+18.5 +14.6 78 +20 +22 1010.6 907.5
15 17.09 В 1 50 км 10/5 600 м
[Cb calv Ac trans Ci fib]
+16.2 +12.3 78 +17 +17 1011.7 907.6 +19.7 5
18 17.09 Ю 1 50 км 8/0
[Ac trans Ci fib]
+11.7 +11.7 100 +11 +11 1014.7 908.8
21 17.09 штиль 0 50 км 5/0
[Ac trans]
+7.8 +7.8 100 +7 +7 1016.5 908.9
00 18.09 штиль 0 50 км ясно +6.8 +6.8 100 +6 +6 1016.8 908.7
03 18.09 штиль 0 50 км ясно +4.9 +4.9 100 +4 +4 1018.1 909.1 +4.9
06 18.09 штиль 0 50 км 1/0
[Ac lent]
+14.2 +11.7 85 +14 +20 1015.1 910.0
09 18.09 ЮВ 1 50 км 1/0
[Ac lent]
+24.8 +3.2 25 +24 +36 комфорт 1010.5 909.1
12 18.09 З 3 50 км 3/1 600 м
[Cu med, cong Ac lent]
+26.2 +2.2 21 +25 +29 комфорт 1009.3 908.5
15 18.09 ЮЗ 2 50 км ясно +21.3 +1.5 27 +21 +21 комфорт 1011.1 908.5 +27.3
18 18.09 СВ 1 50 км ясно +11.8 +5.5 65 +12 +12 1015.5 909.3
21 18.09 Ю 1 50 км ясно +8.6 +4.9 78 +8 +8 1017.7 910.2
00 19.09 Ю 1 50 км ясно +8.5 +6.2 85 +8 +8 1019.7 911.9
03 19.09 штиль 0 50 км 9/0
[Ac trans]
+5.3 +5.3 100 +4 +4 1021.8 912.7 +5.0
06 19.09 штиль 0 20 км 10/10 600 м
[Sc]
+12.7 +9.1 79 +12 +12 1019.8 913.6
09 19.09 С 2 50 км 5/5 600 м
[Cu med, cong]
+15.8 +10.0 68 +16 +22 1017.9 913.0
12 19.09 С 3 50 км 8/8 600 м
[Cu med, cong]
+16.9 +9.2 60 +17 +18 1018.1 913.5
15 19.09 С 1 50 км 9/9 600 м
[Sc]
+14.9 +9.5 70 +15 +15 1019.4 913.9 +18.5
18 19.09 штиль 0 50 км 9/9 600 м
[Sc]
+12.5 +8.6 77 +12 +12 1020.0 913.7
21 19.09 Ю 1 50 км ясно +7.6 +7.2 97 +7 +7 1020.7 912.5
00 20.09 штиль 0 50 км 10/0
[Ac trans]
+7.2 +7.2 100 +6 +6 1021.3 913.0
03 20.09 штиль 0 20 км 10/10 600 м
[Sc]
+9.0 +7.6 91 +8 +8 1018.9 911.5 +5.4
06 20.09 штиль 0 20 км 10/10 600 м
[Sc]
+12.1 +6.9 70 +12 +12 1017.0 910.8
09 20.09 ЮВ 1 20 км 9/9 600 м
[Sc]
+16.0 +8.3 60 +17 +18 1012.5 908.2
12 20.09 В 1 20 км 10/9 600 м
[Sc Ci fib]
+17.1 +8.3 56 +18 +19 1010.3 906.6
15 20.09 С 1 20 км 10/10 600 м
[Cb calv]
+15.5 +8.6 63 +16 +16 1010.8 906.5 +18.2
18 20.09 С 2 20 км 10/10 600 м
[Cb calv]
+10.4 +6.6 77 +9 +9 1012.4 906.1
21 20.09 С 1 20 км слаб. ливневой дождь {гроза} 10/10 600 м
[Cb calv]
+7.0 +7.0 100 +6 +6 1015.3 907.5
00 21.09 Ю 1 20 км ливневой дождь {гроза} 10/10 600 м
[Cb calv]
+6.3 +6.3 100 +5 +5 1016.6 908.4
03 21.09 С 1 10 км слаб. ливневой дождь 10/10 600 м
[Cb calv]
+5.9 +5.9 100 +5 +5 1016.6 908.2 +5.9 15
06 21.09 штиль 0 10 км слаб. ливневой дождь 10/10 600 м
[Cb calv]
+6.2 +6.2 100 +5 +5 1018.4 910.0
09 21.09 С 1 20 км {ливн. осадки} 10/10 600 м
[Cb calv]
+8.8 +6.1 83 +8 +8 1017.6 910.2
12 21.09 Ю 2 20 км в посл. час ливневой дождь 10/10 600 м
[Cb calv]
+7.5 +5.4 87 +5 +5 1018.7 910.7
15 21.09 С 1 20 км {ливн. осадки} 10/10 600 м
[Cb calv]
+6.9 +6.8 99 +6 +6 1020.0 911.6 +10.0 7
18 21.09 Ю 1 10 км слаб. ливневой дождь 10/10 600 м
[Cb calv]
+4.8 +3.5 91 +3 +3 1023.0 913.5
21 21.09 З 1 20 км в посл. час ливневой дождь 10/10 600 м
[Cb calv]
+4.4 +3.1 91 +3 +3 1024.0 914.2
00 22.09 штиль 0 20 км {ливн. осадки} 8/8 600 м
[Sc]
+3.2 +2.1 92 +2 +2 1024.6 914.3
03 22.09 В 1 50 км ясно +0.4 +0.4 100 -2 -2 1027.0 915.3 +0.2 1
06 22.09 штиль 0 50 км 1/0
[Ac trans]
+6.9 +0.8 65 +6 +12 1025.0 916.0
09 22.09 СВ 2 50 км ясно +12.7 -0.0 42 +12 +23 опасность
простуды
1020.6 914.1
12 22.09 С 2 50 км ясно +16.3 +2.7 40 +17 +23 1017.7 912.8
15 22.09 С 2 50 км ясно +12.3 +2.5 51 +12 +12 1019.5 913.0 +16.9

 

Местоположение метеостанции Зеленчукская (Карачаево-Черкессия, Россия): широта 43.87 долгота 41.57 высота над уровнем моря 929 м.

В архиве по умолчанию представлена погода в Зеленчукской за последнюю неделю. Архивные данные за месяц целиком и за предыдущие месяцы, начиная с января 2011 года, Вы можете получить, выбрав интересующий диапазон дат из раскрывающегося списка и нажав кнопку "Ввод!".


*Определитесь, кто Вы:
робот инопланетянин человек

Внимание! Время в таблицах - всемирное. Для получения местного времени необходимо прибавить поправку, которая равна 3 ч.

Смотрите также архив погоды в соседних городах и на ближайших метеорологических станциях:

Погода в Теберде (Карачаево-Черкессия, Россия) (48 км)
Погода в Черкесске (Карачаево-Черкессия, Россия) (56 км)
Погода в Домбае (Карачаево-Черкессия, Россия) (56 км)
Погода в Отрадной (Краснодарский край, Россия) (59 км)
Погода в Архызе (Карачаево-Черкессия, Россия) (63 км)
Погода в Псебае (Краснодарский край, Россия) (70 км)
Погода на Клухорском Перевале (Карачаево-Черкессия, Россия) (87 км)
Погода в Шаджатмазе (Карачаево-Черкессия, Россия) (90 км)
Погода в Невинномысске (Ставропольский край, Россия) (90 км)
Погода в Кисловодске (Ставропольский край, Россия) (92 км)

Пояснения к столбцам:

Ветер - указаны скорость ветра в м/с - средняя за 10 мин, порывы в срок и между сроками (в фигурных скобках) и направление, откуда дует ветер: С - северный, СВ - северо-восточный, В - восточный, ЮВ - юго-восточный, Ю - южный, ЮЗ - юго-западный, З - западный, СЗ - северо-западный.
Видимость - горизонтальная дальность видимости в метрах или километрах. При видимости от 1 до 10 км при отсутствии осадков обычно наблюдается дымка, при ухудшении видимости до 1 км и менее - туман. В сухую погоду видимость может ухудшаться дымом, пылью или мглою.
Явления - указаны атмосферные явления, наблюдавшиеся в срок или в последний час перед сроком; фигурными скобками обозначены явления, наблюдавшиеся между сроками (за 1-3 часа до срока); квадратными скобками обозначены град или гололедные отложения с указанием их диаметра в мм.
Облачность - указаны через наклонную черту общая и нижняя облачность в баллах и высота нижней границы облаков в метрах; квадратными скобками обозначены формы облаков: Ci - перистые, Cs - перисто-слоистые, Cc - перисто-кучевые, Ac - высококучевые, As - высокослоистые, Sc - слоисто-кучевые, Ns - слоисто-дождевые, Cu - кучевые, Cb - кучево-дождевые. Подробнее классификацию облаков см. в Атласе облаков (PDF).
T - Температура воздуха - температура, измеренная на высоте 2 м над землей.
Td - Температура точки росы - температура, при понижении до которой содержащийся в воздухе водяной пар достигнет насыщения.
f - Относительная влажность воздуха - влажноcть воздуха, измеренная на высоте 2 м над землей.
Te - Эффективная температура - температура, которую ощущает одетый по сезону человек в тени. Характеристика душности погоды. При расчете учитывается влияние влажности воздуха и скорости ветра на теплоощущения человека.
Tes - Эффективная температура на солнце - температура, которую ощущает человек, с поправкой на солнечный нагрев. Характеристика знойности погоды. Зависит от высоты солнца над горизонтом, облачности и скорости ветра. Ночью, в пасмурную погоду, а также при ветре 12 м/с и более поправка равна нулю.
P - Атмосферное давление - приведенное к уровню моря атмосферное давление.
Po - Атмосферное давление - измеренное на уровне метеостанции атмосферное давление.
Tmin - Минимальная температура - минимум температуры воздуха на высоте 2 м над землей.
Tmax - Максимальная температура - максимум температуры воздуха на высоте 2 м над землей.
R - Количество осадков - Количество выпавших осадков за период времени, мм. При наведении курсора мыши на число - период времени, за который выпало указанное количество осадков.
R24 - Количество осадков - Количество выпавших осадков за 24 часа, мм.
S - Снежный покров - Высота снежного покрова, см. При наведении курсора мыши на число - состояние снежного покрова и степень покрытия местности в баллах.